User: anonymous   Login
Location: Unspecified
(0.0000°N, 0.0000°E)
Time: 22:44:32
(UTC+00:00)
Language:

FASTSAT-HSV01 (USA 220) - Orbit

View from above orbital plane
View from above orbital plane
View from above satellite
View from above satellite

Ground track
Ground track

The orbit is defined by the following mean orbital elements,

1 37225U          26140.35556346 +.00000000 +00000-0 +37774-4 0 00004
2 37225  71.9723 221.6141 0016753 187.3310 172.7612 14.82108542    03
Epoch (UTC): 20 May 2026 08:32:00
Eccentricity: 0.0016753
inclination: 71.9723°
perigee height: 611 km
apogee height: 634 km
right ascension of ascending node: 221.6141°
argument of perigee: 187.3310°
revolutions per day: 14.82108542
mean anomaly at epoch: 172.7612°

The dashed part of the orbit path shows where the satellite is in the earth's shadow,  

DLR